When you browse on this site, cookies collect data to enhance your experience and personalize the content and advertising you see.
Visit our Privacy Policy to learn more. By continuing to use the site, you agree to this use of cookies and data.

Meteo pe oră la Dziekowizna

Astăzi, 19 Septembrie, Sâmbătă

Timp Temperatura Precipitaţii Vânt Presiune Umiditate
00:00 +10°C° 0 mm 1 m/s 754 mmHg 70%
01:00 +8°C° 0 mm 0 m/s 754 mmHg 70%
02:00 +8°C° 0 mm 0 m/s 753 mmHg 70%
03:00 +9°C° 0 mm 1 m/s 753 mmHg 70%
04:00 +9°C° 0 mm 1 m/s 753 mmHg 70%
05:00 +10°C° 0 mm 1 m/s 753 mmHg 67%
06:00 +10°C° 0 mm 1 m/s 753 mmHg 65%
07:00 +11°C° 0 mm 1 m/s 753 mmHg 63%
08:00 +13°C° 0 mm 1 m/s 753 mmHg 56%
09:00 +15°C° 0 mm 2 m/s 753 mmHg 49%
10:00 +17°C° 0 mm 2 m/s 753 mmHg 42%
11:00 +18°C° 0 mm 2 m/s 753 mmHg 39%
12:00 +19°C° 0 mm 2 m/s 752 mmHg 36%
13:00 +19°C° 0 mm 2 m/s 752 mmHg 34%
14:00 +19°C° 0 mm 2 m/s 752 mmHg 37%
15:00 +19°C° 0 mm 2 m/s 752 mmHg 40%
16:00 +19°C° 0 mm 1 m/s 751 mmHg 43%
17:00 +16°C° 0 mm 1 m/s 751 mmHg 46%
18:00 +15°C° 0 mm 1 m/s 751 mmHg 50%
19:00 +13°C° 0 mm 1 m/s 751 mmHg 53%
20:00 +12°C° 0 mm 1 m/s 751 mmHg 54%
21:00 +12°C° 0 mm 1 m/s 751 mmHg 55%
22:00 +10°C° 0 mm 0 m/s 751 mmHg 56%
23:00 +10°C° 0 mm 0 m/s 751 mmHg 57%

Mâine, 20 Septembrie, Duminică

Timp Temperatura Precipitaţii Vânt Presiune Umiditate
00:00 +11°C° 0 mm 1 m/s 751 mmHg 57%
01:00 +10°C° 0 mm 1 m/s 751 mmHg 58%
02:00 +10°C° 0 mm 1 m/s 751 mmHg 59%
03:00 +10°C° 0 mm 1 m/s 751 mmHg 60%
04:00 +10°C° 0 mm 1 m/s 751 mmHg 61%
05:00 +10°C° 0 mm 1 m/s 751 mmHg 61%
06:00 +11°C° 0 mm 1 m/s 751 mmHg 61%
07:00 +12°C° 0 mm 2 m/s 751 mmHg 61%
08:00 +13°C° 0 mm 2 m/s 751 mmHg 56%
09:00 +15°C° 0 mm 2 m/s 751 mmHg 51%
10:00 +17°C° 0 mm 2 m/s 751 mmHg 47%
11:00 +18°C° 0 mm 2 m/s 751 mmHg 44%
12:00 +19°C° 0 mm 3 m/s 750 mmHg 40%
13:00 +20°C° 0 mm 3 m/s 750 mmHg 37%
14:00 +19°C° 0 mm 3 m/s 750 mmHg 41%
15:00 +19°C° 0 mm 2 m/s 750 mmHg 44%
16:00 +18°C° 0 mm 2 m/s 749 mmHg 47%
17:00 +17°C° 0 mm 2 m/s 749 mmHg 50%
18:00 +15°C° 0 mm 2 m/s 749 mmHg 52%
19:00 +14°C° 0 mm 2 m/s 749 mmHg 55%
20:00 +13°C° 0 mm 2 m/s 749 mmHg 57%
21:00 +13°C° 0 mm 2 m/s 749 mmHg 60%
22:00 +12°C° 0 mm 2 m/s 749 mmHg 63%
23:00 +12°C° 0 mm 2 m/s 749 mmHg 64%

Poimâine, 21 Septembrie, Luni

Timp Temperatura Precipitaţii Vânt Presiune Umiditate
00:00 +10°C° 0 mm 2 m/s 749 mmHg 65%
01:00 +10°C° 0 mm 2 m/s 749 mmHg 67%
02:00 +10°C° 0 mm 2 m/s 749 mmHg 69%
03:00 +10°C° 0 mm 2 m/s 749 mmHg 70%
04:00 +9°C° 0 mm 2 m/s 749 mmHg 72%
05:00 +10°C° 0 mm 2 m/s 749 mmHg 71%
06:00 +12°C° 0 mm 2 m/s 749 mmHg 69%
07:00 +13°C° 0 mm 2 m/s 749 mmHg 67%
08:00 +15°C° 0 mm 2 m/s 749 mmHg 61%
09:00 +17°C° 0 mm 2 m/s 749 mmHg 54%
10:00 +19°C° 0 mm 2 m/s 749 mmHg 48%
11:00 +21°C° 0 mm 2 m/s 748 mmHg 45%
12:00 +23°C° 0 mm 2 m/s 748 mmHg 43%
13:00 +24°C° 0 mm 2 m/s 748 mmHg 40%
14:00 +24°C° 0 mm 1 m/s 747 mmHg 43%
15:00 +24°C° 0 mm 1 m/s 747 mmHg 45%
16:00 +24°C° 0 mm 1 m/s 747 mmHg 47%
17:00 +22°C° 0 mm 1 m/s 747 mmHg 52%
18:00 +19°C° 0 mm 1 m/s 747 mmHg 56%
19:00 +16°C° 0 mm 2 m/s 747 mmHg 61%
20:00 +16°C° 0 mm 2 m/s 747 mmHg 63%
21:00 +15°C° 0 mm 2 m/s 747 mmHg 65%
22:00 +15°C° 0 mm 2 m/s 747 mmHg 67%
23:00 +15°C° 0 mm 2 m/s 747 mmHg 67%

22 Septembrie, Marţi

Timp Temperatura Precipitaţii Vânt Presiune Umiditate
00:00 +14°C° 0 mm 2 m/s 746 mmHg 68%
01:00 +14°C° 0 mm 2 m/s 746 mmHg 69%
02:00 +14°C° 0 mm 2 m/s 746 mmHg 70%
03:00 +14°C° 0 mm 2 m/s 746 mmHg 71%
04:00 +14°C° 0 mm 2 m/s 746 mmHg 71%
05:00 +15°C° 0 mm 2 m/s 746 mmHg 69%
06:00 +15°C° 0 mm 2 m/s 746 mmHg 67%
07:00 +16°C° 0 mm 3 m/s 746 mmHg 65%
08:00 +19°C° 0 mm 3 m/s 746 mmHg 58%
09:00 +21°C° 0 mm 3 m/s 746 mmHg 52%
10:00 +23°C° 0 mm 4 m/s 746 mmHg 46%
11:00 +25°C° 0 mm 4 m/s 746 mmHg 43%
12:00 +26°C° 0 mm 4 m/s 745 mmHg 40%
13:00 +27°C° 0 mm 4 m/s 745 mmHg 37%
14:00 +27°C° 0 mm 4 m/s 744 mmHg 40%
15:00 +26°C° 0 mm 3 m/s 744 mmHg 43%
16:00 +26°C° 0 mm 3 m/s 743 mmHg 46%
17:00 +24°C° 0 mm 3 m/s 743 mmHg 50%
18:00 +21°C° 0 mm 3 m/s 743 mmHg 54%
19:00 +19°C° 0 mm 3 m/s 743 mmHg 58%
20:00 +18°C° 0 mm 3 m/s 743 mmHg 60%
21:00 +18°C° 0 mm 3 m/s 743 mmHg 61%
22:00 +17°C° 0 mm 3 m/s 742 mmHg 63%
23:00 +16°C° 0 mm 3 m/s 742 mmHg 64%

23 Septembrie, Miercuri

Timp Temperatura Precipitaţii Vânt Presiune Umiditate
00:00 +16°C° 0 mm 3 m/s 742 mmHg 65%
01:00 +16°C° 0 mm 3 m/s 741 mmHg 67%
02:00 +14°C° 0 mm 3 m/s 741 mmHg 66%
03:00 +14°C° 0 mm 3 m/s 741 mmHg 66%
04:00 +14°C° 0 mm 3 m/s 740 mmHg 66%
05:00 +16°C° 0 mm 3 m/s 740 mmHg 64%
06:00 +15°C° 0 mm 4 m/s 740 mmHg 62%
07:00 +17°C° 0 mm 4 m/s 740 mmHg 60%
08:00 +19°C° 0 mm 4 m/s 740 mmHg 55%
09:00 +21°C° 0 mm 4 m/s 740 mmHg 50%
10:00 +25°C° 0 mm 4 m/s 740 mmHg 45%
11:00 +26°C° 0 mm 4 m/s 739 mmHg 41%
12:00 +27°C° 0 mm 4 m/s 739 mmHg 38%
13:00 +28°C° 0 mm 5 m/s 739 mmHg 35%
14:00 +28°C° 0 mm 4 m/s 739 mmHg 39%
15:00 +27°C° 0 mm 4 m/s 738 mmHg 43%
16:00 +26°C° 0 mm 3 m/s 738 mmHg 47%
17:00 +24°C° 0 mm 3 m/s 738 mmHg 52%
18:00 +22°C° 0 mm 3 m/s 738 mmHg 57%
19:00 +20°C° 0 mm 3 m/s 738 mmHg 62%
20:00 +19°C° 0 mm 3 m/s 738 mmHg 64%
21:00 +19°C° 0 mm 3 m/s 738 mmHg 67%
22:00 +18°C° 0 mm 3 m/s 738 mmHg 69%
23:00 +18°C° 0 mm 2 m/s 738 mmHg 71%

24 Septembrie, Joi

Timp Temperatura Precipitaţii Vânt Presiune Umiditate
00:00 +17°C° 0 mm 2 m/s 738 mmHg 73%
01:00 +17°C° 0 mm 2 m/s 738 mmHg 75%
02:00 +17°C° 0 mm 2 m/s 738 mmHg 76%
03:00 +16°C° 0 mm 2 m/s 738 mmHg 77%
04:00 +16°C° 0 mm 2 m/s 738 mmHg 78%
05:00 +17°C° 0.3 mm 2 m/s 738 mmHg 78%
06:00 +17°C° 0.3 mm 2 m/s 738 mmHg 79%
07:00 +18°C° 0.3 mm 2 m/s 738 mmHg 79%
08:00 +19°C° 0.3 mm 2 m/s 739 mmHg 77%
09:00 +19°C° 0.3 mm 2 m/s 739 mmHg 76%
10:00 +20°C° 0.3 mm 2 m/s 739 mmHg 74%
11:00 +23°C° 0 mm 2 m/s 739 mmHg 69%
12:00 +24°C° 0 mm 2 m/s 739 mmHg 64%
13:00 +25°C° 0 mm 2 m/s 739 mmHg 59%
14:00 +25°C° 0.1 mm 2 m/s 739 mmHg 60%
15:00 +25°C° 0.1 mm 2 m/s 739 mmHg 61%
16:00 +24°C° 0.1 mm 1 m/s 739 mmHg 62%
17:00 +23°C° 0.5 mm 2 m/s 739 mmHg 67%
18:00 +20°C° 0.5 mm 2 m/s 739 mmHg 73%
19:00 +19°C° 0.5 mm 2 m/s 739 mmHg 78%
20:00 +18°C° 0.4 mm 2 m/s 739 mmHg 80%
21:00 +18°C° 0.4 mm 2 m/s 739 mmHg 83%
22:00 +18°C° 0.4 mm 2 m/s 739 mmHg 85%
23:00 +17°C° 0 mm 3 m/s 738 mmHg 87%
Arată mai mult